Regional Weather Roundup
Issued by NWS

Home | Current Version | Previous Version | Text Only | Print | Product List | Glossary On
Versions: 1 2 3 4 5 6 7 8 9 10 11 12 13 14 15 16 17 18 19 20 21 22 23 24 25 26 27 28 29 30 31 32 33 34 35 36 37 38 39 40 41 42 43 44 45 46 47 48 49 50
000
ASUS44 KOUN 312310
RWROK

WEATHER ROUNDUP FOR OKLAHOMA
NATIONAL WEATHER SERVICE NORMAN OK
500 PM CST SAT JAN 31 2015

NOTE: "FAIR" INDICATES FEW OR NO CLOUDS BELOW 12,000 FEET WITH NO
      SIGNIFICANT WEATHER AND/OR OBSTRUCTIONS TO VISIBILITY.

OKZ001>007-009>012-014-015-017-010000-
NORTHWEST OKLAHOMA AND THE PANHANDLE

CITY           SKY/WX    TMP DP  RH WIND       PRES   REMARKS
GAGE           CLOUDY    41  39  93 S14       29.85F
ENID/WOODRING  LGT RAIN  41  41 100 S15       29.92F FOG
$$

OKZ016-021>023-033>039-044-045-010000-
SOUTHWEST OKLAHOMA

CITY           SKY/WX    TMP DP  RH WIND       PRES   REMARKS
LAWTON/REGL    RAIN      43  41  93 SE9       29.95F FOG
LAWTON/FT SILL LGT RAIN  42  42 100 SE8       29.93F FOG
FREDERICK      LGT RAIN  43  41  93 SE9       29.91F FOG
CLINTON        LGT RAIN  41  39  93 S16       29.91F FOG
HOBART         LGT RAIN  41  40  96 S13       29.92F
ALTUS AFB      LGT RAIN  43  43 100 SE10      29.92F FOG
$$

OKZ018>020-024>031-010000-
CENTRAL OKLAHOMA

CITY           SKY/WX    TMP DP  RH WIND       PRES   REMARKS
OKLAHOMA CITY  LGT RAIN  42  39  89 S7        29.95F FOG
OKC/WILEY POST LGT RAIN  42  40  92 S8        29.96F FOG
STILLWATER     RAIN      41  39  93 S8        29.96F FOG
GUTHRIE        LGT RAIN  41  40  96 S6        29.97F FOG
$$

OKZ008-013-054>072-010000-
NORTHEAST OKLAHOMA

CITY           SKY/WX    TMP DP  RH WIND       PRES   REMARKS
TULSA          LGT RAIN  44  40  85 SE8       29.97F
TULSA/JONES    LGT RAIN  44  37  76 S9        29.98F
PONCA CITY     LGT RAIN  40  38  93 S14       29.97S FOG     WCI  32
BARTLESVILLE   LGT RAIN  40  37  89 SE6       30.00F FOG
MUSKOGEE       LGT RAIN  48  31  51 SE10      30.03F
$$

OKZ032-040>043-046>053-073>077-010000-
SOUTH CENTRAL/SOUTHEAST OKLAHOMA

CITY           SKY/WX    TMP DP  RH WIND       PRES   REMARKS
ARDMORE/DWNTWN LGT RAIN  43  43 100 S6        29.99F
MCALESTER      CLOUDY    52  30  43 VRB3      30.02F
$$



USA.gov is the U.S. government's official web portal to all federal, state and local government web resources and services.